Marianna, FL

9:31 PM CDT on September 20, 2019 (GMT -0500)
Marianna Municipal

Weather History for KMAI - August, 2019

Change the Weather History Date:

Monday, August 19, 2019

  Actual Average Record
Temperature  
Mean Temperature 82 °F 82 °F  
Max Temperature 88 °F 91 °F 99 °F (2011)
Min Temperature 75 °F 72 °F 69 °F (2001)
Degree Days  
Heating Degree Days 0    
Month to date heating degree days 0  
Since 1 June heating degree days 0  
Since 1 July heating degree days 0  
Cooling Degree Days 17    
Month to date cooling degree days 368  
Year to date cooling degree days 2146  
Since 1 June cooling degree days 1467  
Growing Degree Days 30 (Base 50)    
Moisture  
Dew Point 76 °F    
Average Humidity 88    
Maximum Humidity 100    
Minimum Humidity 67    
Precipitation  
Precipitation T in 0.17 in 0.58 in (2014)
Month to date precipitation 1.58 3.72  
Year to date precipitation 25.91 36.62  
Sea Level Pressure  
Sea Level Pressure 30.03 in    
Wind  
Wind Speed 5 mph (SSW)    
Max Wind Speed 14 mph    
Max Gust Speed 19 mph    
Visibility 10 miles    
Events Rain , Thunderstorm    
T = Trace of Precipitation, MM = Missing Value Source: NWS Daily Summary

Daily Weather History Graph

Daily Weather History Graph

Search for Another Location

Airport or City:

Astronomy

Aug. 19, 2019 Rise Set
Actual Time 6:09 AM CDT 7:19 PM CDT
Civil Twilight 5:44 AM CDT 7:44 PM CDT
Nautical Twilight 5:14 AM CDT 8:13 PM CDT
Astronomical Twilight 4:43 AM CDT 8:44 PM CDT
Moon 9:54 PM CDT (8/19) 9:37 AM CDT (8/19)
Length of Visible Light 14h 00m
Length of Day
13h 09m
Waning Gibbous, 85% of the Moon is Illuminated
Aug 19
Waning Gibbous
Aug 23
Last Quarter
Aug 30
New
Sep 5
First Quarter
Sep 13
Full

Hourly Weather History & Observations

Time (CDT) Temp. Heat Index Dew Point Humidity Pressure Visibility Wind Dir Wind Speed Gust Speed Precip Events Conditions
12:53 AM 77.0 °F - 75.0 °F 94% 29.98 in 10.0 mi West 6.9 mph - N/A   Clear
1:53 AM 75.9 °F - 73.9 °F 94% 29.98 in 10.0 mi SW 5.8 mph - N/A   Clear
2:53 AM 75.9 °F - 75.0 °F 97% 29.99 in 10.0 mi SSW 4.6 mph - N/A   Clear
3:53 AM 75.9 °F - 75.0 °F 97% 30.00 in 10.0 mi SSE 3.5 mph - N/A   Overcast
4:53 AM 75.0 °F - 75.0 °F 100% 30.00 in 10.0 mi Calm Calm - N/A   Partly Cloudy
5:53 AM 75.0 °F - 75.0 °F 100% 30.01 in 10.0 mi Calm Calm - N/A   Mostly Cloudy
6:53 AM 75.9 °F - 75.0 °F 97% 30.02 in 10.0 mi Calm Calm - N/A   Overcast
7:53 AM 77.0 °F - 75.9 °F 96% 30.05 in 10.0 mi SSW 4.6 mph - N/A   Overcast
8:53 AM 78.1 °F - 75.9 °F 93% 30.06 in 10.0 mi SSW 6.9 mph - N/A   Overcast
9:53 AM 80.1 °F 85.8 °F 77.0 °F 90% 30.06 in 9.0 mi South 4.6 mph - 0.00 in Rain Light Rain
10:40 AM 80.1 °F 85.8 °F 77.0 °F 90% 30.07 in 10.0 mi South 3.5 mph - 0.00 in Rain , Thunderstorm Light Rain
10:53 AM 80.1 °F 85.8 °F 77.0 °F 90% 30.06 in 10.0 mi SSE 3.5 mph - 0.00 in Thunderstorm Overcast
10:57 AM 80.1 °F 85.8 °F 77.0 °F 90% 30.07 in 10.0 mi SE 4.6 mph - N/A   Overcast
11:17 AM 80.1 °F 86.4 °F 78.1 °F 94% 30.07 in 10.0 mi SE 5.8 mph - N/A Thunderstorm Overcast
11:53 AM 81.0 °F 88.6 °F 78.1 °F 91% 30.06 in 10.0 mi South 6.9 mph - N/A Thunderstorm Overcast
12:09 PM 82.9 °F 92.8 °F 78.1 °F 85% 30.06 in 10.0 mi SSW 8.1 mph - N/A   Overcast
12:53 PM 86.0 °F 96.9 °F 77.0 °F 74% 30.04 in 10.0 mi WSW 8.1 mph - N/A   Partly Cloudy
1:53 PM 86.0 °F 93.8 °F 73.9 °F 67% 30.01 in 10.0 mi SSW 8.1 mph - N/A   Scattered Clouds
2:53 PM 84.0 °F 91.9 °F 75.0 °F 74% 29.99 in 10.0 mi SSW 10.4 mph - N/A Thunderstorm Thunderstorm
3:21 PM 82.9 °F 90.2 °F 75.0 °F 77% 29.99 in 10.0 mi SW 10.4 mph - N/A Thunderstorm Thunderstorm
3:28 PM 82.9 °F 90.8 °F 75.9 °F 79% 29.99 in 10.0 mi SW 8.1 mph - 0.00 in Rain Light Rain
3:53 PM 82.9 °F 90.8 °F 75.9 °F 79% 29.99 in 10.0 mi SSW 8.1 mph - 0.00 in   Overcast
4:30 PM 82.9 °F 90.2 °F 75.0 °F 77% 30.01 in 10.0 mi SW 8.1 mph - N/A   Scattered Clouds
4:53 PM 82.9 °F 90.2 °F 75.0 °F 77% 30.00 in 10.0 mi WSW 11.5 mph - N/A   Mostly Cloudy
5:53 PM 81.0 °F 86.7 °F 75.0 °F 82% 29.99 in 10.0 mi SW 9.2 mph - N/A   Clear
6:53 PM 80.1 °F 85.4 °F 75.9 °F 87% 30.01 in 10.0 mi West 8.1 mph - N/A   Scattered Clouds
7:53 PM 79.0 °F - 75.9 °F 90% 30.04 in 10.0 mi WNW 4.6 mph - N/A   Overcast
8:53 PM 78.1 °F - 75.9 °F 93% 30.06 in 10.0 mi Calm Calm - N/A   Mostly Cloudy
9:08 PM 78.1 °F - 75.9 °F 93% 30.06 in 10.0 mi Calm Calm - N/A   Mostly Cloudy
9:49 PM 78.8 °F - 75.2 °F 89% 30.07 in 10.0 mi Calm Calm - N/A   Partly Cloudy
9:53 PM 78.1 °F - 75.9 °F 93% 30.06 in 10.0 mi South 3.5 mph - N/A   Partly Cloudy
10:53 PM 78.1 °F - 75.9 °F 93% 30.06 in 10.0 mi South 4.6 mph - N/A   Clear
11:53 PM 77.0 °F - 75.0 °F 94% 30.05 in 10.0 mi SSE 4.6 mph - N/A   Clear